[[{"header":{"parameterUnit":"m.s-1","parameterCategory":1,"la1":30.2991,"la2":30.254,"lo1":-89.0895,"lo2":-89.0444,"dy":0.0017,"dx":0.0017,"nx":28,"ny":28,"refTime":"2023-04-23T21:00:00:Z","depth":0,"parameterNumber":2,"parameterNumberName":"U-component_of_WINDS"},"data":[0,0,0,0,0,0,0,0,0,0,0,0,0,0,0,0,0,0,0,0,0,0,0,0,0,0,0,0,0,0,0,0,0,0,0,0,0,0,0,0,0,0,0,0,0,0,0,0,0,0,0,0,0,0,0,0,0,0,-1.5062,-1.5062,0,-1.5121,-1.5121,-1.5122,-1.51,-1.5099,-1.5098,-1.5096,-1.5156,-1.5159,-1.5162,0,0,0,0,0,0,0,0,0,0,0,0,0,-1.4928,-1.4931,-1.5061,-1.5062,-1.5063,-1.5121,-1.5122,-1.5122,-1.5101,-1.5099,-1.5097,-1.5096,-1.5155,-1.5159,-1.5162,0,0,0,0,0,0,0,0,0,0,0,0,0,-1.4987,-1.4931,-1.5061,-1.5059,-1.506,-1.5121,-1.5122,-1.5123,-1.5101,-1.5099,-1.5097,-1.5095,-1.5154,-1.5158,-1.5163,-1.5229,0,0,-1.5176,-1.5178,0,0,0,0,0,0,0,0,-1.4983,-1.4991,-1.5059,-1.5059,-1.506,-1.5101,-1.5096,-1.5158,-1.5101,-1.5085,-1.5096,-1.5094,-1.514,-1.5145,-1.516,-1.5232,-1.5234,-1.5176,-1.5179,-1.518,-1.5182,0,0,0,0,0,0,0,-1.4979,-1.4989,-1.5085,-1.506,-1.506,-1.5055,-1.5061,-1.5108,-1.5123,-1.5086,-1.5085,-1.5092,-1.5139,-1.5156,-1.5162,-1.5235,-1.5176,-1.518,-1.5182,-1.5184,-1.5364,-1.5367,0,0,0,0,0,0,-1.4975,-1.4986,-1.5083,-1.5087,-1.5016,-1.5059,-1.5066,-1.509,-1.5122,-1.5125,-1.5094,-1.5091,-1.515,-1.5157,-1.5164,-1.5244,-1.518,-1.5184,-1.5187,-1.5362,-1.5365,-1.5367,0,0,0,0,0,0,-1.4972,-1.4984,-1.5081,-1.5036,-1.5048,-1.5063,-1.5091,-1.5092,-1.5109,-1.5128,-1.513,-1.5109,-1.5149,-1.5158,-1.5213,-1.5246,-1.5186,-1.519,-1.536,-1.5363,-1.5366,-1.5405,0,0,0,0,0,0,-1.4969,-1.4983,-1.5009,-1.5037,-1.505,-1.513,-1.5093,-1.5095,-1.5117,-1.5113,-1.5142,-1.5145,-1.5148,-1.5207,-1.5217,-1.5251,-1.5194,-1.5357,-1.5361,-1.5365,-1.5401,-1.541,-1.5417,0,0,0,0,0,-1.4964,-1.5017,-1.501,-1.5022,-1.5083,-1.5132,-1.5139,-1.5141,-1.5119,-1.5145,-1.5157,-1.5144,-1.524,-1.5213,-1.5224,-1.5259,-1.5355,-1.536,-1.5365,-1.5398,-1.5408,-1.5417,0,0,0,0,0,0,-1.4993,-1.5021,-1.5014,-1.5078,-1.5102,-1.5128,-1.5161,-1.5152,-1.5184,-1.5179,-1.518,-1.5187,-1.5244,-1.5257,-1.5226,-1.5325,-1.5294,-1.5302,-1.5315,-1.5325,-1.5333,-1.5329,-1.5197,0,0,0,0,0,-1.5007,-1.5044,-1.5067,-1.5121,-1.5134,-1.5145,-1.5166,-1.5166,-1.5191,-1.5202,-1.5218,-1.5243,-1.5279,-1.5302,-1.5336,-1.5402,-1.5409,-1.5432,-1.544,-1.5446,-1.5453,-1.549,-1.55,-1.5384,-1.5384,-1.5384,0,0,-1.5036,-1.5056,-1.5079,-1.5127,-1.5147,-1.5185,-1.5154,-1.5196,-1.5225,-1.5208,-1.5262,-1.5274,-1.5302,-1.5364,-1.5391,-1.5376,-1.5487,-1.5453,-1.5458,-1.5461,-1.5496,-1.5507,-1.5517,-1.5387,-1.5387,-1.5386,0,0,-1.5109,-1.5128,-1.5175,-1.5195,-1.5225,-1.5232,-1.5243,-1.527,-1.5278,-1.5331,-1.532,-1.5353,-1.5415,-1.5435,-1.5454,-1.5534,-1.5524,-1.5545,-1.5586,-1.5622,-1.5631,-1.5639,-1.5668,-1.5679,-1.5552,-1.5552,-1.5552,0,-1.5141,-1.52,-1.5201,-1.5244,-1.5266,-1.5252,-1.53,-1.5319,-1.5358,-1.5373,-1.5355,-1.5432,-1.545,-1.5516,-1.5536,-1.5551,-1.5564,-1.5542,-1.5629,-1.5638,-1.5645,-1.5673,-1.5684,-1.5554,-1.5554,-1.5554,-1.5553,0,-1.5238,-1.5279,-1.5314,-1.5353,-1.5378,-1.5423,-1.5431,-1.5456,-1.5453,-1.5461,-1.5516,-1.5537,-1.5575,-1.559,-1.5588,-1.5656,-1.5646,-1.5629,-1.5598,-1.5659,-1.5685,-1.5696,-1.5558,-1.5557,-1.5556,-1.5555,0,0,-1.5333,-1.5371,-1.5384,-1.5401,-1.5432,-1.5464,-1.5508,-1.5546,-1.5568,-1.5594,-1.5632,-1.5684,-1.5669,-1.569,-1.5689,-1.572,-1.5783,-1.5699,-1.57,-1.5715,-1.586,-1.5874,-1.5886,-1.5775,-1.5777,-1.5779,-1.5858,0,-1.5409,-1.5488,-1.549,-1.5563,-1.56,-1.5587,-1.5626,-1.5649,-1.5658,-1.5691,-1.5701,-1.5738,-1.5715,-1.5727,-1.5757,-1.5769,-1.5812,-1.5763,-1.5811,-1.5812,-1.5805,-1.59,-1.5914,-1.5988,-1.5868,-1.587,-1.5871,0,-1.5509,-1.554,-1.5616,-1.5642,-1.5658,-1.5693,-1.5728,-1.5759,-1.5785,-1.5789,-1.5813,-1.5807,-1.5852,-1.5819,-1.5881,-1.5848,-1.5867,-1.5876,-1.5878,-1.5884,-1.5847,-1.5909,-1.6011,-1.6023,-1.5887,-1.5886,-1.5885,0,-1.5571,-1.5632,-1.5685,-1.57,-1.5732,-1.5757,-1.5771,-1.5795,-1.5817,-1.5847,-1.5861,-1.5896,-1.5915,-1.5942,-1.5945,-1.592,-1.6008,-1.5975,-1.6014,-1.6014,-1.6034,-1.6033,-1.6142,-1.6044,-1.6044,-1.6044,-1.6044,0,-1.5657,-1.5705,-1.5714,-1.5747,-1.58,-1.5801,-1.5853,-1.5865,-1.5886,-1.5921,-1.5911,-1.5944,-1.5946,-1.598,-1.5983,-1.6035,-1.6043,-1.6048,-1.6049,-1.605,-1.6049,-1.6063,-1.6059,-1.6047,-1.6046,-1.6046,-1.6045,0,-1.5736,-1.5744,-1.5802,-1.5827,-1.5834,-1.5872,-1.5893,-1.5925,-1.5932,-1.5977,-1.5987,-1.5999,-1.6038,-1.6044,-1.609,-1.6092,-1.6154,-1.6149,-1.6146,-1.6146,-1.6184,-1.6181,-1.6308,-1.6325,-1.6215,-1.6216,-1.6217,0,-1.5791,-1.5828,-1.5857,-1.588,-1.5895,-1.5932,-1.5955,-1.5957,-1.5981,-1.6013,-1.6041,-1.6079,-1.6109,-1.6172,-1.6185,-1.622,-1.6216,-1.6258,-1.6221,-1.6222,-1.6218,-1.6216,-1.622,-1.6266,-1.6267,-1.6268,-1.6268,0,-1.5888,-1.589,-1.5924,-1.5959,-1.5987,-1.6015,-1.6041,-1.606,-1.6065,-1.6092,-1.6133,-1.6157,-1.6203,-1.6241,-1.6276,-1.629,-1.6281,-1.628,-1.6291,-1.6293,-1.629,-1.6293,-1.6167,-1.6277,-1.6276,-1.6276,-1.6275,-1.6275,-1.5958,-1.599,-1.6015,-1.6053,-1.6073,-1.6097,-1.6128,-1.614,-1.6173,-1.6212,-1.6211,-1.6255,-1.6279,-1.6325,-1.6341,-1.6375,-1.6362,-1.6377,-1.6382,-1.6386,-1.639,-1.6284,-1.6381,-1.6381,-1.6381,-1.6381,-1.638,0,-1.6055,-1.6071,-1.6105,-1.6142,-1.6172,-1.616,-1.6188,-1.6214,-1.6253,-1.6277,-1.6307,-1.6353,-1.639,-1.6405,-1.6441,-1.6466,-1.6462,-1.6475,-1.6474,-1.6478,-1.64,-1.6387,-1.6478,-1.6478,-1.6478,-1.6477,-1.6477,-1.6477,-1.6109,-1.6163,-1.6168,-1.6231,-1.6246,-1.629,-1.6307,-1.6329,-1.6348,-1.64,-1.6431,-1.644,-1.6461,-1.6498,-1.6531,-1.6535,-1.6549,-1.6564,-1.6566,-1.6493,-1.6483,-1.6474,-1.6462,-1.6567,-1.6567,-1.6641,-1.6642,-1.6642]},{"header":{"parameterUnit":"m.s-1","parameterCategory":1,"la1":30.2991,"la2":30.254,"lo1":-89.0895,"lo2":-89.0444,"dy":0.0017,"dx":0.0017,"nx":28,"ny":28,"refTime":"2023-04-23T21:00:00:Z","depth":0,"parameterNumber":3,"parameterNumberName":"V-component_of_WINDS"},"data":[0,0,0,0,0,0,0,0,0,0,0,0,0,0,0,0,0,0,0,0,0,0,0,0,0,0,0,0,0,0,0,0,0,0,0,0,0,0,0,0,0,0,0,0,0,0,0,0,0,0,0,0,0,0,0,0,0,0,-5.6805,-5.6805,0,-5.6806,-5.6806,-5.6806,-5.673,-5.6728,-5.6726,-5.6724,-5.6724,-5.6726,-5.6728,0,0,0,0,0,0,0,0,0,0,0,0,0,-5.6738,-5.674,-5.6805,-5.6805,-5.6805,-5.6806,-5.6806,-5.6806,-5.673,-5.6728,-5.6726,-5.6723,-5.6724,-5.6726,-5.6728,0,0,0,0,0,0,0,0,0,0,0,0,0,-5.6756,-5.674,-5.6805,-5.6768,-5.6764,-5.6806,-5.6806,-5.6806,-5.6731,-5.6728,-5.6725,-5.6722,-5.6723,-5.6726,-5.6728,-5.6805,0,0,-5.6737,-5.6738,0,0,0,0,0,0,0,0,-5.6755,-5.6758,-5.6773,-5.677,-5.6767,-5.6765,-5.6782,-5.6805,-5.6732,-5.6744,-5.6724,-5.6721,-5.674,-5.6741,-5.6748,-5.6805,-5.6805,-5.6737,-5.6739,-5.674,-5.6741,0,0,0,0,0,0,0,-5.6754,-5.6758,-5.6805,-5.6773,-5.677,-5.6751,-5.675,-5.6786,-5.6759,-5.6742,-5.6737,-5.6738,-5.6738,-5.6745,-5.6747,-5.6805,-5.6737,-5.674,-5.6741,-5.6742,-5.6925,-5.6928,0,0,0,0,0,0,-5.6758,-5.6757,-5.6805,-5.6805,-5.6753,-5.6754,-5.6753,-5.6768,-5.6758,-5.6754,-5.6741,-5.6734,-5.6742,-5.6744,-5.6747,-5.6836,-5.674,-5.6743,-5.6744,-5.6922,-5.6926,-5.6929,0,0,0,0,0,0,-5.6757,-5.6763,-5.6805,-5.678,-5.6784,-5.6758,-5.6776,-5.677,-5.6777,-5.6757,-5.6751,-5.6754,-5.674,-5.6743,-5.6791,-5.6835,-5.6744,-5.6746,-5.6918,-5.6923,-5.6927,-5.7014,0,0,0,0,0,0,-5.6755,-5.6763,-5.6792,-5.6781,-5.6785,-5.685,-5.6779,-5.6772,-5.6783,-5.6775,-5.6767,-5.6763,-5.6738,-5.6788,-5.6794,-5.6837,-5.6749,-5.6914,-5.692,-5.6926,-5.7007,-5.7021,-5.7033,0,0,0,0,0,-5.6753,-5.6817,-5.6794,-5.68,-5.6822,-5.6853,-5.6855,-5.6824,-5.6786,-5.6815,-5.6802,-5.6764,-5.6829,-5.6793,-5.68,-5.6844,-5.6911,-5.6918,-5.6925,-5.7002,-5.7019,-5.7033,0,0,0,0,0,0,-5.6833,-5.6814,-5.6789,-5.6851,-5.6854,-5.684,-5.6875,-5.6844,-5.6857,-5.6849,-5.6811,-5.681,-5.6864,-5.6859,-5.6819,-5.6918,-5.6863,-5.6872,-5.6919,-5.6935,-5.6948,-5.6948,-5.6751,0,0,0,0,0,-5.6858,-5.6885,-5.6867,-5.6924,-5.6927,-5.6901,-5.6913,-5.689,-5.6891,-5.6892,-5.6882,-5.6884,-5.6905,-5.692,-5.6938,-5.7006,-5.7003,-5.704,-5.7053,-5.7064,-5.7072,-5.7107,-5.7123,-5.6952,-5.6952,-5.6952,0,0,-5.691,-5.6903,-5.6923,-5.694,-5.6939,-5.6968,-5.6902,-5.6935,-5.6956,-5.6897,-5.6941,-5.6934,-5.6934,-5.6993,-5.7018,-5.699,-5.7118,-5.7073,-5.7082,-5.7084,-5.7116,-5.7132,-5.7147,-5.6957,-5.6956,-5.6956,0,0,-5.7019,-5.7017,-5.7063,-5.7064,-5.7064,-5.7046,-5.7058,-5.7048,-5.7041,-5.7085,-5.7041,-5.7065,-5.7102,-5.7104,-5.711,-5.7219,-5.7184,-5.7226,-5.7294,-5.7328,-5.7342,-5.7353,-5.7392,-5.7406,-5.7234,-5.7234,-5.7234,0,-5.7084,-5.7125,-5.7091,-5.7127,-5.7136,-5.7083,-5.7129,-5.7132,-5.7138,-5.7145,-5.7114,-5.7159,-5.7155,-5.7213,-5.724,-5.7246,-5.7258,-5.7226,-5.7343,-5.7354,-5.7364,-5.7401,-5.7415,-5.7239,-5.7239,-5.7238,-5.7238,0,-5.7204,-5.7233,-5.727,-5.7277,-5.729,-5.7331,-5.7303,-5.732,-5.7296,-5.7281,-5.7327,-5.7321,-5.7336,-5.7348,-5.7325,-5.7403,-5.7386,-5.7349,-5.7294,-5.7386,-5.742,-5.7433,-5.7246,-5.7245,-5.7243,-5.7242,0,0,-5.7364,-5.7351,-5.7365,-5.7367,-5.7363,-5.7385,-5.7423,-5.7439,-5.7454,-5.746,-5.749,-5.7523,-5.7489,-5.7496,-5.7472,-5.7502,-5.7589,-5.7462,-5.7461,-5.7485,-5.7674,-5.7701,-5.7717,-5.7566,-5.7568,-5.757,-5.7673,0,-5.7468,-5.7533,-5.7504,-5.7572,-5.7598,-5.7548,-5.7582,-5.7583,-5.757,-5.759,-5.7577,-5.76,-5.7554,-5.7558,-5.7586,-5.7572,-5.7626,-5.7564,-5.7593,-5.7595,-5.7594,-5.7735,-5.7763,-5.7861,-5.7686,-5.7688,-5.769,0,-5.76,-5.7611,-5.7681,-5.7672,-5.7681,-5.7712,-5.7723,-5.7744,-5.7743,-5.7732,-5.774,-5.7708,-5.7745,-5.769,-5.774,-5.7699,-5.7709,-5.7704,-5.7707,-5.7708,-5.7648,-5.7739,-5.7892,-5.7906,-5.771,-5.7709,-5.7707,0,-5.7708,-5.7741,-5.7787,-5.779,-5.7781,-5.7803,-5.78,-5.7797,-5.7808,-5.7818,-5.7824,-5.7839,-5.7847,-5.7858,-5.7832,-5.7794,-5.7885,-5.7828,-5.7876,-5.7877,-5.7897,-5.7896,-5.8053,-5.7905,-5.7905,-5.7904,-5.7904,0,-5.7828,-5.7874,-5.7836,-5.7864,-5.7913,-5.7878,-5.7927,-5.7919,-5.7916,-5.7942,-5.79,-5.7925,-5.7888,-5.791,-5.7889,-5.7933,-5.7937,-5.7929,-5.7923,-5.7932,-5.7933,-5.7938,-5.793,-5.7908,-5.7907,-5.7907,-5.7906,0,-5.7958,-5.7935,-5.7981,-5.7968,-5.7966,-5.8002,-5.799,-5.8016,-5.8,-5.8033,-5.8039,-5.8015,-5.8038,-5.8012,-5.8034,-5.802,-5.8079,-5.8063,-5.8079,-5.8074,-5.8124,-5.8119,-5.8289,-5.8309,-5.8148,-5.815,-5.8151,0,-5.8036,-5.8069,-5.8059,-5.8073,-5.8073,-5.8096,-5.8107,-5.8074,-5.8087,-5.8089,-5.8114,-5.8134,-5.8147,-5.8186,-5.817,-5.8186,-5.817,-5.8228,-5.8172,-5.818,-5.817,-5.8168,-5.8171,-5.824,-5.8242,-5.8243,-5.8244,0,-5.8177,-5.8163,-5.818,-5.8194,-5.8208,-5.8217,-5.8222,-5.8236,-5.8202,-5.8219,-5.8241,-5.8252,-5.8273,-5.8293,-5.8304,-5.83,-5.8267,-5.8262,-5.8274,-5.8284,-5.8292,-5.8288,-5.811,-5.8258,-5.8257,-5.8256,-5.8255,-5.8255,-5.8282,-5.8309,-5.8306,-5.8327,-5.8327,-5.8334,-5.8357,-5.8344,-5.8362,-5.8377,-5.8356,-5.8384,-5.8383,-5.8394,-5.8395,-5.8416,-5.8391,-5.8408,-5.8413,-5.8417,-5.8425,-5.8289,-5.8418,-5.8418,-5.8417,-5.8417,-5.8416,0,-5.842,-5.8416,-5.8435,-5.8444,-5.846,-5.8427,-5.8431,-5.8447,-5.8472,-5.8473,-5.8487,-5.8513,-5.8532,-5.8517,-5.8533,-5.8553,-5.8538,-5.8558,-5.8556,-5.8555,-5.8446,-5.8434,-5.857,-5.857,-5.857,-5.857,-5.857,-5.857,-5.8494,-5.8538,-5.8524,-5.8567,-5.8562,-5.8589,-5.8595,-5.86,-5.86,-5.8631,-5.8646,-5.8637,-5.8632,-5.8646,-5.8662,-5.8657,-5.8665,-5.869,-5.868,-5.8578,-5.8563,-5.8549,-5.8537,-5.8692,-5.8692,-5.8787,-5.8788,-5.8789]}]]